POLYTECH-UNIVERSE 3 (R*)

Last updated on Mon Oct 27 2025 00:03:16 GMT+0000 (Coordinated Universal Time)

1 57191U 23091AB 25299.49402480 .00006956 00000+0 36359-3 0 9990 2 57191 97.5406 353.7867 0015648 217.0096 143.0059 15.16093430128504
UTC large
Height (km)
Speed (km/s)
/
Latitude / Longitude
Inclination (degrees)
Orbital Period (minutes)
Azimuth
Elevation
Range (km)
Doppler Factor

Next 0 passes for location: London (51.5072 / 0.1276)

Sorry there are no passes over London.